Wind_Speed
26 26 26 26 26 26 26 27 27 26 26 26 26 26 26 26 25 25 24 24 25 25 24 24 24 24 23 23 23 23 22 22 23 23 24 25 25 26 27 27 27 27 27
28 27 26 27 27 27 27 27 27 26 27 26 27 27 26 26 26 26 25 25 25 26 25 25 24 24 24 24 24 23 23 23 23 23 23 24 25 25 26 27 27 28 28
28 27 27 27 27 27 27 27 27 28 27 26 27 27 27 26 26 25 25 25 25 26 26 25 25 25 25 24 24 24 23 23 24 24 24 24 25 26 26 27 28 29 29
27 27 28 28 28 28 28 27 27 27 26 26 26 26 27 26 26 26 25 25 26 26 26 27 26 26 26 25 25 25 25 25 25 25 26 26 26 26 27 28 28 28 29
28 28 28 27 27 27 27 27 27 27 27 26 25 25 25 26 26 26 25 25 26 27 27 27 27 27 27 26 26 26 26 26 26 27 27 27 27 28 28 29 29 29 30
28 28 27 27 27 27 27 27 26 26 26 26 25 24 24 25 26 25 25 25 26 27 27 27 27 27 28 27 27 27 27 27 27 28 28 28 28 29 29 29 30 30 31
27 28 27 27 26 26 25 25 24 25 24 24 24 24 24 23 24 24 25 26 26 27 27 28 28 28 28 28 28 28 28 28 28 29 29 29 30 30 31 30 31 31 32
26 26 26 26 25 25 24 24 23 23 23 24 24 24 24 24 24 25 25 25 26 27 27 28 29 29 29 29 28 28 29 29 29 29 31 31 31 32 33 33 33 33 33
27 26 25 25 24 24 24 22 22 22 23 24 24 25 25 25 25 25 26 25 25 26 27 28 28 29 30 29 29 29 29 30 30 30 31 32 32 33 34 35 35 35 35
25 24 23 23 23 23 23 22 22 23 24 24 25 25 26 25 25 25 25 25 25 26 26 27 28 28 28 29 30 30 30 31 31 31 31 32 33 34 35 36 36 37 37
24 23 22 21 21 21 22 21 23 23 24 25 26 26 26 25 25 25 25 25 26 25 25 26 27 28 28 29 30 31 31 31 32 32 32 32 33 34 34 35 36 37 38
22 22 21 20 20 21 21 22 22 23 23 25 26 26 26 25 25 25 25 25 25 24 25 26 26 27 29 30 30 31 31 32 32 33 34 34 34 34 34 35 36 37 38
21 21 20 20 19 19 19 20 22 22 22 23 24 25 25 25 24 25 25 25 25 25 24 25 26 27 29 30 30 31 32 32 32 33 34 34 35 35 35 35 35 36 37
21 20 19 19 18 17 17 18 19 20 20 21 22 23 24 23 23 24 24 24 24 24 24 25 27 28 28 29 30 31 32 32 32 33 34 34 35 36 35 35 36 37 37
19 18 18 18 17 17 17 18 18 19 18 18 19 20 21 21 22 21 22 22 23 23 24 25 26 26 27 28 29 30 31 32 32 32 33 34 35 35 36 37 37 38 38
18 19 18 17 17 17 16 16 16 16 16 16 17 17 18 19 20 20 20 20 21 22 24 24 24 25 26 27 29 30 30 30 31 32 33 34 35 35 36 37 37 38 38
18 18 17 17 17 16 14 14 13 13 13 13 14 16 17 17 18 18 18 19 21 22 23 24 24 25 25 26 27 28 29 30 31 32 33 34 34 35 35 36 37 38 38
18 17 17 17 17 15 14 12 11 12 12 13 13 14 14 15 16 17 17 19 20 22 22 23 23 23 23 24 25 26 28 29 29 30 31 32 33 34 34 34 34 35 36
17 17 16 16 15 14 12 12 11 11 12 12 13 13 13 14 14 15 17 18 19 21 21 22 23 23 24 24 24 26 27 27 28 29 29 30 31 32 33 33 33 33 34
17 17 17 16 14 12 12 11 10 11 11 11 12 12 12 12 13 14 16 17 18 19 20 20 21 22 22 23 24 24 25 26 27 27 27 28 29 30 31 32 33 33 34
16 16 16 14 12 12 12 11 11 10 11 11 11 12 12 12 13 14 14 15 16 17 18 19 20 21 22 23 23 23 23 24 24 25 25 25 26 27 28 29 30 31 33
16 15 15 13 12 12 12 11 11 10 11 12 12 12 12 12 12 13 14 15 15 16 17 18 19 20 21 22 22 23 24 24 24 24 25 24 25 26 27 28 29 29 31
17 16 14 14 13 12 12 12 12 11 12 12 12 11 12 11 12 12 12 13 14 15 16 17 17 18 19 21 22 22 23 22 23 23 24 24 24 25 26 27 28 28 30
16 15 14 13 13 13 13 13 12 12 13 13 12 11 11 11 11 11 11 12 13 15 16 16 16 17 18 18 20 21 22 23 23 23 24 24 25 25 25 26 27 26 27
13 13 14 13 13 13 14 13 13 13 13 12 11 11 11 11 11 12 12 13 14 15 15 16 17 17 17 18 19 20 21 22 22 23 24 24 24 25 24 25 25 26 26
12 12 13 13 13 14 14 14 14 13 13 11 11 11 11 11 12 12 12 13 14 14 15 16 17 17 18 18 18 19 20 20 21 21 21 21 22 23 23 24 24 25 26
Wind_Direction
292 290 287 285 283 282 281 279 276 273 272 271 267 265 265 264 263 263 262 260 259 257 257 256 256 256 256 255 254 255 253 252 251 251 250 250 248 245 243 243 244 244 244
289 289 287 285 283 281 279 277 275 273 271 269 267 264 263 262 263 262 260 260 258 258 256 255 256 256 255 255 254 254 255 253 253 252 250 249 249 247 244 244 245 245 244
290 289 289 288 285 283 281 277 273 275 272 270 267 264 263 261 262 261 261 259 258 258 258 256 255 255 255 255 254 254 255 255 253 252 252 252 250 249 247 246 246 247 246
291 290 290 288 286 284 281 278 274 273 270 269 267 263 262 261 261 260 259 259 258 257 258 257 255 255 255 254 253 254 255 255 253 252 251 251 250 249 249 249 248 248 247
290 290 289 287 285 283 280 277 275 272 270 267 265 264 263 261 260 261 258 258 257 256 256 255 254 254 254 254 254 254 254 254 254 253 252 252 251 249 249 249 250 249 248
289 287 285 284 284 283 280 277 274 272 270 268 267 265 265 262 260 261 259 258 257 256 255 255 254 253 253 254 255 255 255 255 255 255 254 253 252 251 250 251 251 250 250
291 287 284 283 282 282 280 278 273 270 269 269 268 267 266 264 261 261 260 259 257 255 254 255 256 254 252 253 254 254 255 256 256 256 255 253 253 252 252 252 251 251 251
294 289 286 284 283 282 280 278 274 270 268 268 269 267 266 266 264 262 260 259 257 256 255 255 256 255 253 253 253 253 254 255 256 256 256 254 254 253 253 252 251 251 251
297 291 287 285 284 282 280 276 273 270 268 267 268 268 267 266 265 261 261 260 259 259 257 255 255 253 252 253 253 254 255 256 257 257 257 257 256 255 254 253 252 252 252
304 296 290 286 284 282 279 275 274 272 270 267 267 269 268 267 264 261 260 259 258 260 258 256 255 254 254 254 255 257 257 257 257 257 258 258 257 256 256 254 253 252 252
309 304 298 290 286 282 279 275 275 274 272 268 266 268 268 267 264 262 261 259 259 260 260 258 257 256 255 256 257 259 259 258 258 259 260 259 258 258 257 256 255 253 253
312 309 301 293 290 285 281 277 276 276 274 271 268 266 266 266 263 263 261 260 260 260 262 261 261 259 258 258 259 260 261 261 260 261 261 260 259 259 258 258 258 256 254
316 313 307 303 298 294 288 282 278 277 276 273 270 266 265 264 264 264 264 263 263 263 265 264 262 261 260 259 260 261 262 263 263 262 261 261 260 260 260 259 258 257 255
319 318 315 311 305 299 294 288 284 283 279 275 272 269 267 267 265 265 265 264 265 266 268 267 266 265 263 261 260 261 262 262 263 263 262 262 262 262 261 259 257 257 255
321 322 320 314 309 304 299 293 288 285 283 280 277 274 270 268 267 266 265 265 265 266 266 268 268 266 265 263 261 261 262 263 264 265 263 262 263 262 261 259 257 256 256
322 322 321 317 314 311 306 301 297 293 290 286 281 278 274 270 268 268 269 268 268 269 270 271 269 268 267 265 263 263 264 265 265 265 264 264 263 263 261 259 257 256 255
325 322 321 321 319 319 317 312 306 303 299 293 289 284 279 275 272 272 274 273 272 271 271 271 272 271 268 267 267 267 267 267 266 266 266 266 264 262 261 259 257 255 254
330 329 327 327 327 325 324 322 315 310 306 305 301 297 290 283 278 277 278 277 275 274 272 270 271 271 271 272 272 271 270 270 269 268 268 267 264 262 261 259 258 255 254
332 333 333 331 329 329 327 322 315 312 312 313 311 306 300 292 286 283 283 281 278 276 274 272 271 271 272 273 274 273 273 272 271 270 270 268 266 263 261 259 259 256 254
334 336 335 335 333 334 332 328 326 323 323 321 319 314 307 297 291 289 287 285 282 279 276 274 273 274 274 275 276 276 275 275 274 273 272 270 266 264 262 260 259 257 255
341 341 341 341 338 338 340 338 336 331 330 328 324 319 313 305 299 298 298 296 292 286 281 279 279 278 279 278 279 279 279 278 276 274 274 272 268 264 262 260 261 259 255
347 345 345 350 348 347 346 344 342 337 334 331 326 323 320 315 310 305 305 304 300 293 287 285 284 283 282 279 279 279 280 279 278 277 275 272 269 266 263 261 261 260 257
350 349 349 349 351 350 350 348 346 342 338 334 330 329 330 327 321 315 310 308 305 299 296 295 294 291 286 282 281 281 281 281 282 279 276 273 270 267 265 264 263 262 258
352 354 353 353 355 353 349 346 341 335 335 336 337 340 340 336 332 323 317 314 313 310 308 304 301 300 295 291 288 286 284 283 283 281 278 275 272 269 267 266 265 264 262
349 355 357 357 356 352 349 347 345 343 343 346 348 351 347 342 335 330 322 319 319 319 317 314 310 309 306 301 296 293 289 286 285 283 279 276 271 270 270 268 267 266 266
355 358 358 358 356 354 353 351 351 351 350 351 353 353 353 348 342 339 337 334 332 328 325 320 315 316 314 311 305 301 297 293 290 287 283 280 276 272 271 270 269 268 268
Height
5829 5827 5825 5823 5821 5819 5818 5817 5815 5814 5813 5812 5812 5812 5812 5811 5811 5811 5811 5812 5812 5812 5813 5813 5813 5814 5814 5815 5816 5817 5818 5819 5820 5821 5822 5824 5825 5827 5829 5831 5833 5835 5837
5822 5820 5817 5815 5813 5812 5810 5809 5808 5807 5806 5805 5805 5805 5805 5805 5804 5804 5805 5805 5805 5806 5806 5807 5807 5808 5809 5809 5810 5811 5812 5813 5814 5815 5816 5818 5819 5821 5823 5825 5827 5829 5832
5815 5813 5810 5808 5806 5804 5803 5801 5800 5800 5799 5798 5798 5798 5798 5798 5798 5798 5798 5798 5799 5799 5800 5800 5801 5801 5802 5803 5804 5805 5806 5807 5808 5809 5811 5812 5814 5815 5817 5819 5821 5823 5825
5808 5806 5803 5801 5799 5797 5795 5794 5793 5792 5791 5791 5790 5791 5790 5790 5791 5791 5791 5791 5791 5792 5793 5793 5794 5795 5795 5796 5797 5798 5800 5801 5802 5803 5805 5806 5807 5809 5811 5813 5814 5816 5819
5800 5798 5796 5793 5791 5789 5787 5786 5785 5785 5784 5783 5783 5783 5783 5783 5783 5783 5784 5784 5784 5785 5785 5786 5786 5787 5788 5789 5790 5792 5793 5794 5795 5796 5798 5799 5800 5802 5804 5806 5807 5809 5811
5792 5790 5788 5786 5783 5781 5780 5778 5778 5777 5777 5776 5776 5776 5776 5776 5776 5776 5776 5777 5777 5778 5778 5779 5779 5780 5781 5782 5783 5784 5786 5787 5788 5789 5790 5792 5793 5795 5796 5798 5800 5802 5804
5785 5782 5780 5778 5776 5774 5773 5771 5770 5770 5770 5769 5769 5769 5769 5769 5769 5769 5769 5769 5770 5770 5771 5771 5772 5772 5774 5775 5776 5777 5778 5780 5781 5782 5783 5784 5786 5787 5788 5790 5792 5794 5796
5777 5774 5772 5770 5768 5766 5765 5764 5763 5763 5763 5762 5762 5762 5762 5763 5762 5762 5762 5762 5762 5762 5763 5764 5764 5765 5766 5767 5769 5770 5771 5772 5773 5774 5775 5776 5778 5779 5780 5782 5783 5785 5787
5769 5766 5764 5762 5760 5759 5758 5757 5756 5756 5756 5756 5755 5754 5755 5755 5755 5755 5754 5754 5754 5755 5755 5755 5756 5757 5758 5760 5761 5762 5763 5764 5765 5766 5767 5768 5769 5770 5771 5772 5774 5775 5777
5762 5759 5756 5754 5752 5751 5750 5750 5749 5749 5749 5748 5747 5747 5747 5747 5747 5747 5747 5747 5747 5747 5747 5748 5748 5749 5750 5752 5753 5754 5754 5755 5756 5757 5758 5758 5759 5760 5761 5762 5764 5765 5767
5755 5752 5749 5747 5745 5743 5742 5742 5742 5741 5741 5741 5740 5739 5739 5739 5738 5739 5740 5740 5740 5739 5740 5740 5740 5741 5742 5743 5744 5745 5746 5746 5747 5747 5748 5749 5749 5750 5751 5752 5754 5755 5756
5750 5746 5743 5740 5738 5736 5735 5735 5734 5733 5733 5733 5732 5732 5731 5731 5731 5731 5732 5732 5732 5732 5732 5732 5733 5733 5734 5735 5736 5736 5737 5737 5738 5738 5739 5739 5740 5741 5741 5742 5743 5744 5745
5745 5741 5737 5735 5732 5730 5729 5728 5727 5726 5725 5725 5724 5723 5723 5723 5723 5724 5724 5725 5725 5725 5725 5725 5725 5725 5726 5726 5727 5727 5727 5728 5728 5728 5729 5729 5730 5730 5731 5732 5733 5733 5735
5740 5736 5733 5730 5727 5725 5723 5722 5720 5719 5718 5717 5716 5716 5715 5715 5716 5716 5717 5717 5718 5718 5717 5717 5717 5717 5717 5718 5718 5718 5718 5718 5719 5719 5719 5719 5720 5720 5720 5721 5722 5723 5724
5736 5733 5729 5725 5723 5720 5718 5716 5715 5713 5712 5710 5710 5709 5708 5708 5709 5709 5709 5710 5711 5711 5711 5710 5710 5709 5709 5709 5709 5709 5709 5709 5709 5709 5709 5709 5709 5710 5710 5710 5711 5712 5713
5732 5728 5725 5722 5719 5716 5713 5711 5710 5708 5706 5705 5704 5703 5702 5702 5702 5702 5702 5702 5703 5703 5703 5702 5702 5702 5701 5700 5700 5700 5700 5699 5699 5699 5699 5699 5699 5699 5699 5700 5701 5701 5702
5729 5725 5721 5718 5715 5712 5709 5707 5705 5703 5702 5700 5699 5697 5696 5696 5696 5695 5695 5695 5695 5695 5695 5695 5694 5693 5693 5692 5691 5691 5691 5690 5690 5689 5689 5688 5688 5689 5689 5689 5690 5691 5692
5727 5722 5719 5715 5712 5708 5706 5704 5702 5700 5698 5696 5694 5692 5691 5690 5690 5689 5689 5689 5688 5688 5687 5687 5686 5686 5685 5684 5683 5683 5682 5681 5681 5680 5679 5678 5678 5678 5678 5679 5679 5680 5681
5724 5720 5716 5712 5709 5706 5703 5701 5699 5697 5694 5692 5690 5688 5686 5685 5684 5684 5683 5682 5682 5681 5680 5679 5679 5678 5678 5677 5676 5675 5673 5672 5672 5671 5670 5669 5668 5668 5668 5669 5669 5670 5671
5722 5718 5714 5710 5707 5704 5701 5698 5696 5694 5691 5689 5687 5684 5682 5681 5680 5679 5678 5677 5675 5674 5673 5673 5672 5671 5670 5669 5668 5667 5665 5664 5663 5662 5661 5659 5659 5658 5658 5659 5660 5660 5661
5720 5716 5712 5708 5705 5702 5699 5696 5694 5692 5689 5686 5684 5681 5679 5677 5676 5674 5673 5671 5669 5668 5667 5666 5665 5664 5663 5662 5661 5659 5658 5656 5655 5654 5652 5651 5650 5650 5649 5649 5650 5650 5651
5718 5714 5711 5707 5704 5701 5698 5695 5692 5689 5687 5684 5681 5678 5676 5673 5672 5670 5668 5666 5665 5663 5662 5660 5659 5657 5656 5655 5654 5652 5650 5649 5648 5647 5645 5644 5642 5641 5641 5641 5640 5641 5641
5717 5713 5710 5707 5703 5700 5697 5694 5691 5688 5685 5682 5679 5676 5673 5671 5669 5667 5665 5663 5661 5659 5657 5655 5653 5651 5650 5648 5647 5646 5643 5642 5640 5638 5637 5635 5634 5633 5632 5631 5631 5631 5632
5716 5713 5709 5706 5703 5699 5696 5693 5690 5687 5683 5680 5676 5673 5670 5668 5666 5664 5662 5660 5658 5655 5653 5651 5648 5646 5644 5642 5640 5638 5636 5634 5632 5630 5628 5627 5626 5625 5623 5623 5622 5623 5623
5715 5712 5709 5705 5702 5699 5696 5692 5689 5685 5682 5678 5675 5672 5669 5666 5664 5662 5660 5658 5655 5652 5649 5647 5644 5641 5639 5636 5634 5632 5630 5627 5625 5623 5620 5619 5617 5616 5615 5615 5614 5614 5614
5714 5711 5708 5705 5702 5698 5695 5691 5687 5684 5681 5678 5675 5671 5669 5666 5663 5660 5658 5655 5652 5650 5647 5644 5641 5638 5635 5632 5629 5626 5623 5621 5618 5615 5613 5611 5610 5609 5608 5607 5607 5606 5606